EDT,Max TemperatureF,Mean TemperatureF,Min TemperatureF,Max Dew PointF,MeanDew PointF,Min DewpointF,Max Humidity, Mean Humidity, Min Humidity, Max Sea Level PressureIn, Mean Sea Level PressureIn, Min Sea Level PressureIn, Max VisibilityMiles, Mean VisibilityMiles, Min VisibilityMiles, Max Wind SpeedMPH, Mean Wind SpeedMPH, Max Gust SpeedMPH,PrecipitationIn, CloudCover, Events, WindDirDegrees
2012-3-1,80,71,62,64,53,37,100,64,21,29.90,29.85,29.79,10,10,7,21,11,26,0.00,2,,241
2012-3-2,66,58,50,61,52,46,100,87,67,29.94,29.86,29.74,10,10,5,13,3,24,0.09,5,Rain-Thunderstorm,21
2012-3-3,62,56,51,63,49,28,100,77,36,29.77,29.70,29.63,10,9,2,22,7,28,1.22,6,Rain-Thunderstorm,313
2012-3-4,55,46,37,36,27,21,65,46,28,30.03,29.86,29.69,10,10,10,25,7,36,0.00,2,,292
2012-3-5,55,45,35,32,27,21,81,50,33,30.44,30.14,29.93,10,10,10,18,8,31,0.00,1,,311
2012-3-6,59,44,30,30,27,23,86,57,31,30.64,30.56,30.47,10,10,10,7,2,,0.00,0,,90
2012-3-7,68,52,37,50,44,30,88,72,52,30.60,30.52,30.42,10,10,10,6,1,,0.00,5,,146
2012-3-8,73,62,51,59,53,50,100,76,47,30.42,30.30,30.11,10,10,7,12,2,18,0.00,4,,200
2012-3-9,64,60,55,59,48,32,100,73,34,30.26,30.17,30.08,10,10,5,13,6,21,0.31,5,Rain,322
2012-3-10,62,50,39,34,30,27,76,48,26,30.47,30.41,30.31,10,10,10,10,5,17,0.00,0,,51
2012-3-11,66,52,37,45,36,30,81,59,34,30.56,30.48,30.40,10,10,10,7,3,,0.00,0,,54
2012-3-12,69,60,51,54,50,45,94,71,53,30.42,30.37,30.28,10,10,10,9,2,,0.00,6,,208
2012-3-13,77,67,57,63,60,57,100,85,54,30.27,30.22,30.13,10,9,5,13,3,17,0.01,5,Rain,234
2012-3-14,82,70,59,63,58,50,100,78,32,30.26,30.21,30.17,10,6,0,9,3,,0.00,4,Fog,240
2012-3-15,86,68,51,57,53,50,100,66,29,30.28,30.23,30.17,10,10,4,10,1,,0.00,0,Thunderstorm,219
2012-3-16,84,70,55,57,56,54,100,69,35,30.24,30.19,30.11,10,10,10,14,3,20,0.00,1,Rain-Thunderstorm,259
2012-3-17,80,70,59,63,59,54,100,79,39,30.25,30.21,30.14,10,9,3,9,3,,0.03,2,Rain-Thunderstorm,267
2012-3-18,78,68,59,64,60,57,100,84,50,30.33,30.25,30.19,10,10,3,8,3,,0.16,2,Rain-Thunderstorm,39
2012-3-19,84,70,55,63,58,55,100,73,37,30.23,30.18,30.09,10,10,10,9,1,,0.00,0,,52
2012-3-20,86,72,57,63,59,55,100,67,37,30.22,30.16,30.10,10,10,7,9,2,,0.00,1,,183
2012-3-21,80,68,57,63,59,55,100,73,42,30.30,30.23,30.17,10,9,1,8,2,,0.00,2,,128
2012-3-22,75,68,60,66,63,61,100,88,65,30.27,30.23,30.16,10,8,0,12,2,16,0.01,5,Fog-Rain,205
2012-3-23,80,70,59,70,63,59,100,91,58,30.17,30.10,29.98,10,7,0,12,1,,0.03,4,Fog-Rain-Thunderstorm,201
2012-3-24,78,70,62,66,60,45,100,78,36,29.98,29.86,29.73,10,10,5,17,6,24,0.12,5,Rain-Thunderstorm,216
2012-3-25,66,60,53,55,51,46,100,76,60,29.82,29.79,29.74,10,10,7,16,6,25,0.10,5,Rain,332
2012-3-26,82,66,50,54,50,45,100,61,30,30.01,29.94,29.86,10,10,10,13,4,17,0.00,0,,325
2012-3-27,69,60,50,50,39,32,72,46,33,30.33,30.22,30.07,10,10,7,9,5,,0.00,0,,75
2012-3-28,80,63,46,61,52,39,100,70,42,30.23,30.12,29.94,10,10,7,16,4,23,0.00,3,,224
2012-3-29,84,72,60,63,56,54,88,61,35,29.97,29.92,29.87,10,10,7,12,6,18,0.00,1,Rain-Thunderstorm,263
2012-3-30,80,68,57,61,54,45,100,69,39,30.02,29.95,29.86,10,10,7,10,2,16,0.00,0,Rain,34
2012-3-31,78,69,60,66,61,55,100,83,44,29.91,29.83,29.76,10,9,4,10,4,17,0.09,4,Rain,261